This demonstration page uses our WeatherBlox Daily Observations layout. Learn more.

38.89511, -77.03637

Hourly Observations for August 15, 2015

Temp ( °F °C ) Dew Point ( °F °C ) Humidity (%) Winds ( mph kmh ) Pressure ( in mb ) Visibility ( mi km ) Precip ( " mm )
12:52 am 00:52 Clear 72 22 61 16 69 69 SW 5 7 30.15 1021 10 16.09344 0 0
1:52 am 01:52 Clear 72 22 61 16 69 69 SW 5 7 30.15 1021 10 16.09344 0 0
2:52 am 02:52 Clear 70 21 61 16 73 73 SW 5 7 30.15 1021 10 16.09344 0 0
3:52 am 03:52 Clear 70 21 61 16 73 73 SSW 5 7 30.15 1021 10 16.09344 0 0
4:52 am 04:52 Clear 68 20 61 16 78 78 SSW 6 9 30.15 1021 10 16.09344 0 0
5:52 am 05:52 Mostly Clear 68 20 61 16 78 78 S 6 9 30.15 1021 10 16.09344 0 0
6:52 am 06:52 Partly Cloudy 68 20 63 17 83 83 SSW 5 7 30.18 1022 10 16.09344 0 0
7:52 am 07:52 Mostly Cloudy 72 22 64 18 78 78 SSW 6 9 30.18 1022 10 16.09344 0 0
8:52 am 08:52 Mostly Cloudy 73 23 64 18 74 74 S 7 11 30.18 1022 10 16.09344 0 0
9:52 am 09:52 Mostly Cloudy 75 24 66 19 74 74 S 8 13 30.18 1022 10 16.09344 0 0
10:52 am 10:52 Mostly Cloudy 81 27 66 19 62 62 S 8 13 30.18 1022 10 16.09344 0 0
11:52 am 11:52 Mostly Cloudy 82 28 64 18 55 55 SSE 10 17 30.18 1022 10 16.09344 0 0
12:52 pm 12:52 Mostly Cloudy 84 29 64 18 51 51 S 9 15 30.15 1021 10 16.09344 0 0
1:52 pm 13:52 Mostly Cloudy 88 31 63 17 43 43 S 7 11 30.15 1021 10 16.09344 0 0
2:52 pm 14:52 Partly Cloudy 90 32 63 17 41 41 S 8 13 30.12 1020 10 16.09344 0 0
3:52 pm 15:52 Partly Cloudy 88 31 61 16 40 40 S 8 13 30.12 1020 10 16.09344 0 0
4:52 pm 16:52 Partly Cloudy 88 31 63 17 43 43 S 12 19 30.12 1020 10 16.09344 0 0
5:52 pm 17:52 Partly Cloudy 88 31 63 17 43 43 S 13 20 30.09 1019 10 16.09344 0 0
6:52 pm 18:52 Partly Cloudy 84 29 63 17 48 48 S 12 19 30.09 1019 10 16.09344 0 0
7:52 pm 19:52 Mostly Cloudy 81 27 63 17 54 54 S 12 19 30.12 1020 10 16.09344 0 0
8:52 pm 20:52 Partly Cloudy 79 26 63 17 58 58 S 10 17 30.12 1020 10 16.09344 0 0
9:52 pm 21:52 Mostly Clear 75 24 63 17 65 65 SSE 3 6 30.15 1021 10 16.09344 0 0
10:52 pm 22:52 Mostly Clear 75 24 63 17 65 65 S 8 13 30.15 1021 10 16.09344 0 0
11:52 pm 23:52 Clear 73 23 63 17 69 69 SSW 7 11 30.15 1021 10 16.09344 0 0

Powered by AerisWeather